Regional Weather Roundup
Issued by NWS

Home | Current Version | Previous Version | Graphics & Text | Print | Product List | Glossary On
Versions: 1 2 3 4 5 6 7 8 9 10 11 12 13 14 15 16 17 18 19 20 21 22 23 24 25 26 27 28 29 30 31 32 33 34 35 36 37 38 39 40 41 42 43 44 45 46 47 48 49 50
116
ASUS43 KMPX 230201
RWRMN
WEATHER ROUNDUP FOR MINNESOTA
NATIONAL WEATHER SERVICE TWIN CITIES/CHANHASSEN MN
900 PM CDT SUN OCT 22 2017


NOTE: "FAIR" INDICATES FEW OR NO CLOUDS BELOW 12,000 FEET WITH NO
SIGNIFICANT WEATHER AND/OR OBSTRUCTIONS TO VISIBILITY. N/A MEANS
CURRENT SKY AND/OR WEATHER CONDITIONS ARE NOT AVAILABLE.

MNZ060>063-068>070-230300-
   Twin Cities Metro

CITY           SKY/WX    TMP DP  RH WIND       PRES   REMARKS
TWIN CITIES    MOCLDY    56  34  43 S9        29.92F
ST PAUL        PTCLDY    50  38  63 SE8       29.93F
CRYSTAL        MOCLDY    53  32  44 S9        29.90F
BLAINE         CLEAR     52  37  58 S7        29.91F
LAKEVILLE      CLEAR     48  36  61 S5        29.93F
EDEN PRAIRIE   PTCLDY    53  35  50 S7        29.90F
SOUTH ST PAUL  CLEAR     52  33  48 S3        29.93F
LAKE ELMO      FAIR      50  36  57 S8        29.94F
$$
MNZ001>005-007-008-013>017-022>024-027-028-230300-
   Northwest Minnesota

CITY           SKY/WX    TMP DP  RH WIND       PRES   REMARKS
BEMIDJI        CLOUDY    56  32  40 S10       29.73F
HALLOCK        DRIZZLE   54  43  66 SW14      29.60F
ROSEAU         MOCLDY    54  43  66 SW12      29.64S
WARROAD        CLOUDY    55  39  54 SW14G20   29.64F
CROOKSTON      LGT RAIN  59  41  51 W12       29.67F
FOSSTON        CLOUDY    57  28  33 SW15      29.71S
DETROIT LAKES  CLOUDY    57  32  38 SW10      29.75S
MOORHEAD       CLOUDY    57  32  38 S12       29.72F
PARK RAPIDS    MOCLDY    56  33  42 S13       29.76F
MAHNOMEN       CLOUDY    56  33  41 S13       29.72S
$$
MNZ006-009>011-018-025>026-230300-
   North Central Minnesota

CITY           SKY/WX    TMP DP  RH WIND       PRES   REMARKS
BAUDETTE       CLOUDY    55  34  45 SW9       29.67F
FLAG ISLAND    CLOUDY    54  36  50 S9        29.61F
INTL FALLS     CLOUDY    53  30  41 SW9       29.73R
WASKISH        CLOUDY    57  34  41 S9        29.71
BIG FORK       CLOUDY    55  30  38 S9G16     29.77S
LONGVILLE      CLOUDY    55  32  41 S9        29.79F
GRAND RAPIDS   CLOUDY    53  31  42 S12       29.82F
CRANE LAKE     CLOUDY    48  30  49 S5        29.79S
ORR            CLOUDY    50  27  40 S7        29.75F
COOK           MOCLDY    52  30  43 S8        29.79F
WALKER         CLOUDY    55  31  40 S9        29.76F
$$
MNZ012-019>021-037-230300-
   Northeast Minnesota

CITY           SKY/WX    TMP DP  RH WIND       PRES   REMARKS
DULUTH         PTCLDY    51  32  48 S10       29.87S
ELY            PTCLDY    46  30  53 S8        29.82F
HIBBING        CLOUDY    49  29  46 S7        29.82F
EVELETH        PTCLDY    50  17  27 S6        29.83F
DULUTH HARBOR  PTCLDY    54  36  50 S8        29.88F
TWO HARBORS    CLEAR     43  37  81 CALM      29.86S
SILVER BAY     CLEAR     37  34  87 CALM      29.86S
G MARAIS ARPRT CLEAR     43  27  52 SW5       29.88S
$$
MNZ029>031-032-039>041-046>048-054>057-064-230300-
   West Central Minnesota

CITY           SKY/WX    TMP DP  RH WIND       PRES   REMARKS
FERGUS FALLS   CLOUDY    59  34  38 S13       29.77S
WHEATON        CLOUDY    57  30  35 S9        29.79F
MORRIS         DRIZZLE   55  37  50 S9        29.81F
ALEXANDRIA     CLOUDY    57  34  41 S13       29.83F
ELBOW LAKE     CLOUDY    56  36  47 S10       29.79F
WADENA         MOCLDY    54  36  50 S6        29.79F
GLENWOOD       LGT RAIN  54  36  50 S8        29.84S
APPLETON       MOCLDY    59  30  33 S8        29.82F
BENSON         CLOUDY    54  36  50 SW9       29.85S
ORTONVILLE     CLOUDY    57  34  41 N6        29.81S
MADISON        CLOUDY    57  37  47 S6        29.83F
WILLMAR        FAIR      54  36  50 S6        29.87S
$$
MNZ033>034-036-042>043-049>051-058-059-230300-
   Central Minnesota

CITY           SKY/WX    TMP DP  RH WIND       PRES   REMARKS
ST CLOUD       MOCLDY    50  36  58 S9        29.87F
SAUK CENTRE    CLOUDY    50  38  61 S8        29.84F
PAYNESVILLE    MOCLDY    55  35  46 S9        29.86F
AITKIN         CLOUDY    52  34  50 S9        29.82F
PINE RIVER     CLOUDY    54  32  43 S7        29.84S
BRAINERD       CLOUDY    55  32  41 S12       29.83F
STAPLES        CLOUDY    54  30  40 S7        29.81F
LONG PRAIRIE   MOCLDY    52  34  50 SE8       29.83F
LITTLE FALLS   CLOUDY    54  27  35 SE8       29.84F
LITCHFIELD     CLOUDY    55  36  47 S3        29.88F
BUFFALO        PTCLDY    54  33  45 SE6       29.90F
MAPLE LAKE     CLOUDY    54  37  52 S5        29.89F
HUTCHINSON     CLOUDY    53  36  53 SE5       29.90S
$$
MNZ037-044-045-052-053-230300-
   East Central Minnesota

CITY           SKY/WX    TMP DP  RH WIND       PRES   REMARKS
PRINCETON      PTCLDY    54  36  50 SE6       29.88F
MORA           MOCLDY    50  32  50 S5        29.90S
CAMBRIDGE      CLOUDY    55  37  50 SE6       29.90F
RUSH CITY      CLOUDY    52  34  50 S7        29.90F
MOOSE LAKE     MOCLDY    46  32  57 CALM      29.86S
HINCKLEY       FAIR      52  34  50 S5        29.89F
CLOQUET        PTCLDY    50  28  43 S5        29.87S
MCGREGOR       MOCLDY    52  32  46 S7        29.85F
$$
MNZ071>073-080-081-089-090-097-098-230300-
   Southwest Minnesota

CITY           SKY/WX    TMP DP  RH WIND       PRES   REMARKS
MONTEVIDEO     CLOUDY    57  34  41 S6        29.84F
GRANITE FALLS  CLOUDY    56  37  47 SE9       29.86F
CANBY          CLOUDY    59  31  35 SW6       29.84F
MARSHALL       CLOUDY    55  35  47 S8        29.85F
REDWOOD FALLS  PTCLDY    51  33  50 S12       29.87F
OLIVIA         CLOUDY    52  34  50 S8        29.86F
PIPESTONE      CLEAR     52  28  40 SW8       29.87F
WORTHINGTON    CLEAR     50  31  48 S8        29.91F
JACKSON        CLEAR     52  32  46 S12       29.93F
TRACY          CLOUDY    56  34  44 S13       29.87F
SLAYTON        CLOUDY    51  32  48 S7        29.90F
$$
MNZ065>067-074>077-082>085-091>093-230300-
   South Central Minnesota

CITY           SKY/WX    TMP DP  RH WIND       PRES   REMARKS
MANKATO        PTCLDY    53  34  48 S8        29.93F
NEW ULM          N/A     52  34  50 S10       29.90F
ST JAMES       CLEAR     52  36  54 S9        29.92F
FAIRMONT       CLEAR     49  36  61 S13       29.94F
GLENCOE        MOCLDY    55  34  44 S6        29.90S
FARIBAULT      CLEAR     52  34  50 S3        29.95F
OWATONNA       CLEAR     50  36  57 S10       29.95F
WASECA         CLEAR     52  36  54 S6        29.96F
$$
MNZ078>079-086>088-094>096-230300-
   Southeast Minnesota

CITY           SKY/WX    TMP DP  RH WIND       PRES   REMARKS
ROCHESTER      CLEAR     44  37  76 S8        29.99F
RED WING       CLEAR     43  36  75 E3        29.95S
STANTON        CLEAR     50  35  55 S6        29.94F
DODGE CENTER   CLEAR     45  36  70 S8        29.97F
WINONA         CLEAR     48  41  76 SE5       30.00F
AUSTIN         CLEAR     50  32  50 S3        29.98F
PRESTON        CLEAR     47  41  80 S7        30.01S
$$
ABBREVIATIONS USED IN REMARKS
   TC - TEMPERATURES IN CELSIUS
  WCI - WIND CHILL INDEX
   HX - HEAT INDEX
  VSB - VISIBILITY
$$




USA.gov is the U.S. government's official web portal to all federal, state and local government web resources and services.